Regional Weather Roundup
Issued by NWS Charleston, SC

Home | Current Version | Previous Version | Text Only | Print | Product List | Glossary On
Versions: 1 2 3 4 5 6 7 8 9 10 11 12 13 14 15 16 17 18 19 20 21 22 23 24 25 26 27 28 29 30 31 32 33 34 35 36 37 38 39 40 41 42 43 44 45 46 47 48 49 50
000
ASUS42 KCHS 010710
RWRCHS
REGIONAL WEATHER ROUNDUP
NATIONAL WEATHER SERVICE CHARLESTON SC
300 AM EDT WED OCT 01 2014

NOTE: "FAIR" INDICATES FEW OR NO CLOUDS BELOW 12,000 FEET WITH NO
SIGNIFICANT WEATHER AND/OR OBSTRUCTIONS TO VISIBILITY.

NOT ALL STATIONS ARE QUALITY CONTROLLED BY THE NATIONAL
WEATHER SERVICE. USE DATA WITH CAUTION...ESPECIALLY
DEWPOINT OBSERVATIONS.

SCZ027-030-031-034>040-042>050-010800-
...SOUTH CAROLINA...

CITY           SKY/WX    TMP DP  RH WIND       PRES   REMARKS
N CHARLESTON   CLEAR     66  63  90 CALM      29.90S
WATERFRONT PRK NOT AVBL
FORT JOHNSON   NOT AVBL
MOUNT PLEASANT FAIR      64  64 100 CALM      29.90S
JOHNS ISLAND   SUNNY     64  64 100 CALM      29.90F
PINOPOLIS        N/A     75  70  83 CALM      29.82F
MONCKS CORNER  FAIR      64  64 100 CALM      29.90S FOG
SUMMERVILLE    FAIR      63  63 100 CALM      29.91F
BEAUFORT MCAS  CLEAR     67  66  97 CALM      29.90S
BEAUFORT ARPT  FAIR      68  68 100 CALM      29.90S
HILTON HEAD IS CLEAR     66  66 100 CALM      29.91S
GEORGETOWN     NOT AVBL
WALTERBORO     SUNNY     63 N/A N/A CALM      29.91F
ORANGEBURG     CLEAR     62  60  93 CALM      29.91S
BARNWELL       FAIR      63  61  94 CALM      29.92S
AIKEN          FAIR      61  61 100 CALM      29.95S
MANNING        FAIR      61 N/A N/A CALM      29.91S
KINGSTREE      NOT AVBL
COLUMBIA       CLEAR     63  59  87 CALM      29.91S
SUMTER         CLEAR     60  58  91 NE2       29.90S
FLORENCE       CLEAR     61  60  97 CALM      29.90F FOG
MYRTLE BEACH   CLEAR     66  63  88 N3        29.90S
N MYRTLE BEACH CLEAR     65  63  93 N6        29.89F

$$

GAZ063-065-086>088-099>101-113>116-118-119-134-136>141-150-010800-
...GEORGIA...

CITY           SKY/WX    TMP DP  RH WIND       PRES   REMARKS
SAVANNAH ARPT  CLEAR     67  65  93 N3        29.90S
HUNTER AAF     CLEAR     65  65 100 NW2       29.88S
FORT STEWART   CLEAR     65  64  95 CALM      29.89S
STATESBORO     NOT AVBL
SYLVANIA       SUNNY     66  65  97 CALM      29.92S
CLAXTON        FAIR      64  64 100 CALM      29.91S
THOMSON        CLEAR     61  61 100 CALM      29.96S
AUGUSTA-BUSH   PTCLDY    59  58  96 CALM      29.91S FOG
AUGUSTA-DANIEL CLEAR     68  65  90 CALM      29.92S
SWAINSBORO     FAIR      66  66 100 CALM      29.93S
VIDALIA        CLEAR     66  64  94 CALM      29.91S
ALMA           CLEAR     65  64  97 CALM      29.90F FOG
WAYCROSS       MOCLDY    70  70 100 CALM      29.90F FOG
JESUP          FAIR      66  64  94 CALM      29.91S
BRUNSWICK        N/A     66  64  94 CALM      29.90F VSB 1
SAINT SIMONS   CLEAR     67  65  93 CALM      29.89F

$$

SCZ027-028-034-036>038-045-046-048>050-GAZ119-141-010800-
...LAKE AND SUPPLEMENTAL COASTAL OBSERVATIONS...

STATION/POSITION TIME  TEMP    WIND        PRES    WAVE   SWELL
                       AIR SEA DIR/SP/G            HT/PER HT/PER/DIR
                 (UTC) (F)     (DEG/KT/KT) (MB)    (FT/S) (FT/S/D)
UPR LAKE MARION  NOT AVBL
WINYAH BAY       0600   68     330/  5     1012.0S
LAKE MURRAY      0600   67      CALM  /  1 1012.5F
ACE BASIN NERRS  0600   66        CALM     1012.0S
FORT PULASKI     0700   70     310/  4/  5 1012.7S
SAPELO ISLAND    NOT AVBL

$$

ANZ835-935-AMZ111-154-330-350-352-354-374-450-454-472-010800-
...C-MAN AND BUOY OBSERVATIONS...

STATION/POSITION TIME  TEMP    WIND        PRES    WAVE   SWELL
                       AIR SEA DIR/SP/G            HT/PER HT/PER/DIR
                 (UTC) (F)     (DEG/KT/KT) (MB)    (FT/S) (FT/S/D)
FOLLY BEACH CMAN 0600   69     310/  3/  4 1012.8S
BUOY 41004       0700   77 81  350/  8/ 10 1011.4S   3/ 6   3/ 6
BUOY 41008       0700   77 79   30/  8/  8 1012.0S   3/ 6   2/ 70/ 6
5E ST. MARYS GA  0700      79                N/A     3/ 6
FRYING PAN BUOY  NOT AVBL
BUOY 41025       0700   71     350/ 16/ 19 1010.8F   4/ 6   2/ 70/ 8
CAPE LOOKOUT NC  0600   69     360/  9/ 11 1011.9R
BUOY 41002       0634   78 80   20/ 10/ 12 1008.5F   3/ 7   2/ 20/ 7
BUOY 41010       0700   81 84   30/  6/  6 1010.8F   3/ 7   3/ 80/ 7
BUOY 41012       NOT AVBL
ST AUGUSTINE FL  0700   77      40/ 10/ 12 1012.0F
CAPERS NEARSHORE 0600   72     330/  6/  8   N/A
FRIPP NEARSHORE  NOT AVBL


$$



USA.gov is the U.S. government's official web portal to all federal, state and local government web resources and services.